Weather History for Laconia, NH

Change the Weather History Date:

Friday, September 6, 2013

  Actual Average Record
Temperature  
Mean Temperature 54 °F -  
Max Temperature 66 °F 76 °F 87 °F (1983)
Min Temperature 41 °F 52 °F 37 °F (2000)
Degree Days  
Heating Degree Days 12    
Growing Degree Days 4 (Base 50)    
Moisture  
Dew Point 40 °F    
Average Humidity 61    
Maximum Humidity 87    
Minimum Humidity 34    
Precipitation  
Precipitation 0.00 in - - ()
Sea Level Pressure  
Sea Level Pressure 30.15 in    
Wind  
Wind Speed 4 mph (WSW)    
Max Wind Speed 14 mph    
Max Gust Speed 18 mph    
Visibility 10 miles    
Events      
Averages and records for this station are not official NWS values.
T = Trace of Precipitation, MM = Missing Value Source: NWS Daily Summary

Daily Weather History Graph

Daily Weather History Graph

Search for Another Location

Airport:

Trip Planner

Search our weather history database for the weather conditions in past years. The results will help you decide how hot, cold, wet, or windy it might be!

Date:

Astronomy

Sep. 06, 2013 Rise Set
Actual Time 6:15 AM EDT 7:11 PM EDT
Civil Twilight 5:46 AM EDT 7:40 PM EDT
Nautical Twilight 5:11 AM EDT 8:15 PM EDT
Astronomical Twilight 4:34 AM EDT 8:51 PM EDT
Moon 7:28 AM EDT (9/6) 7:29 PM EDT (9/6)
Length of Visible Light 13h 54m
Length of Day
12h 56m
New Moon, 1% of the Moon is Illuminated
Sep 6
New Moon
Sep 12
First Quarter
Sep 19
Full
Sep 26
Last Quarter
Oct 4
New

Hourly Weather History & Observations

Time (EDT) Temp. Windchill Dew Point Humidity Pressure Visibility Wind Dir Wind Speed Gust Speed Precip Events Conditions
12:15 AM 46.4 °F - 39.2 °F 76% 30.14 in 10.0 mi Calm Calm - N/A   Clear
12:35 AM 46.4 °F 45.2 °F 39.2 °F 76% 30.14 in 10.0 mi WNW 3.5 mph - N/A   Clear
12:55 AM 44.6 °F - 39.2 °F 81% 30.15 in 10.0 mi Calm Calm - N/A   Clear
1:15 AM 44.6 °F - 39.2 °F 81% 30.15 in 10.0 mi Calm Calm - N/A   Clear
1:35 AM 44.6 °F 42.2 °F 39.2 °F 81% 30.15 in 10.0 mi West 4.6 mph - N/A   Clear
1:55 AM 46.4 °F - 39.2 °F 76% 30.15 in 10.0 mi Calm Calm - N/A   Clear
2:15 AM 44.6 °F - 39.2 °F 81% 30.15 in 10.0 mi Calm Calm - N/A   Clear
2:35 AM 44.6 °F - 39.2 °F 81% 30.16 in 10.0 mi Calm Calm - N/A   Clear
2:55 AM 44.6 °F - 39.2 °F 81% 30.16 in 10.0 mi Calm Calm - N/A   Clear
3:15 AM 42.8 °F - 37.4 °F 81% 30.16 in 10.0 mi Calm Calm - N/A   Clear
3:35 AM 42.8 °F - 39.2 °F 87% 30.17 in 10.0 mi Calm Calm - N/A   Clear
3:55 AM 42.8 °F - 37.4 °F 81% 30.17 in 10.0 mi Calm Calm - N/A   Clear
4:15 AM 42.8 °F - 39.2 °F 87% 30.18 in 10.0 mi Calm Calm - N/A   Clear
4:35 AM 42.8 °F - 37.4 °F 81% 30.18 in 10.0 mi Calm Calm - N/A   Clear
4:55 AM 42.8 °F - 37.4 °F 81% 30.18 in 10.0 mi Calm Calm - N/A   Clear
5:15 AM 42.8 °F - 37.4 °F 81% 30.18 in 10.0 mi Calm Calm - N/A   Clear
5:35 AM 42.8 °F - 37.4 °F 81% 30.19 in 10.0 mi Calm Calm - N/A   Clear
5:55 AM 42.8 °F - 37.4 °F 81% 30.20 in 10.0 mi Calm Calm - N/A   Clear
6:15 AM 41.0 °F - 37.4 °F 87% 30.20 in 10.0 mi Calm Calm - N/A   Clear
6:35 AM 42.8 °F - 37.4 °F 81% 30.20 in 10.0 mi Calm Calm - N/A   Clear
6:55 AM 42.8 °F - 39.2 °F 87% 30.21 in 10.0 mi Calm Calm - N/A   Clear
7:15 AM 44.6 °F - 39.2 °F 81% 30.21 in 10.0 mi Calm Calm - N/A   Clear
7:35 AM 46.4 °F 42.9 °F 41.0 °F 81% 30.21 in 10.0 mi SW 6.9 mph - N/A   Clear
7:55 AM 48.2 °F - 42.8 °F 82% 30.22 in 10.0 mi SW 5.8 mph - N/A   Clear
8:15 AM 48.2 °F - 42.8 °F 82% 30.22 in 10.0 mi SSW 5.8 mph - N/A   Clear
8:35 AM 51.8 °F - 42.8 °F 71% 30.22 in 10.0 mi SW 6.9 mph - N/A   Clear
8:55 AM 53.6 °F - 41.0 °F 62% 30.22 in 10.0 mi WSW 6.9 mph - N/A   Clear
9:15 AM 53.6 °F - 41.0 °F 62% 30.23 in 10.0 mi West 5.8 mph - N/A   Clear
9:35 AM 55.4 °F - 41.0 °F 58% 30.23 in 10.0 mi WSW 10.4 mph - N/A   Clear
9:55 AM 55.4 °F - 37.4 °F 51% 30.22 in 10.0 mi West 9.2 mph - N/A   Clear
10:15 AM 57.2 °F - 37.4 °F 48% 30.22 in 10.0 mi West 9.2 mph - N/A   Clear
10:35 AM 59.0 °F - 37.4 °F 45% 30.22 in 10.0 mi West 11.5 mph 17.3 mph N/A   Clear
10:55 AM 59.0 °F - 35.6 °F 42% 30.21 in 10.0 mi West 6.9 mph - N/A   Clear
11:15 AM 60.8 °F - 35.6 °F 39% 30.21 in 10.0 mi WSW 11.5 mph - N/A   Clear
11:35 AM 62.6 °F - 35.6 °F 37% 30.21 in 10.0 mi WNW 6.9 mph - N/A   Clear
11:55 AM 62.6 °F - 35.6 °F 37% 30.20 in 10.0 mi SW 8.1 mph - N/A   Clear
12:15 PM 62.6 °F - 35.6 °F 37% 30.19 in 10.0 mi WSW 8.1 mph - N/A   Clear
12:35 PM 62.6 °F - 35.6 °F 37% 30.18 in 10.0 mi SW 9.2 mph - N/A   Clear
12:55 PM 62.6 °F - 35.6 °F 37% 30.18 in 10.0 mi West 9.2 mph - N/A   Clear
1:15 PM 62.6 °F - 35.6 °F 37% 30.17 in 10.0 mi WSW 9.2 mph - N/A   Clear
1:35 PM 64.4 °F - 37.4 °F 37% 30.17 in 10.0 mi SW 11.5 mph - N/A   Clear
1:55 PM 64.4 °F - 37.4 °F 37% 30.16 in 10.0 mi West 9.2 mph - N/A   Clear
2:15 PM 64.4 °F - 35.6 °F 34% 30.15 in 10.0 mi West 11.5 mph - N/A   Clear
2:35 PM 64.4 °F - 35.6 °F 34% 30.14 in 10.0 mi West 8.1 mph - N/A   Clear
2:55 PM 66.2 °F - 37.4 °F 35% 30.13 in 10.0 mi SW 6.9 mph 17.3 mph N/A   Clear
3:15 PM 66.2 °F - 39.2 °F 37% 30.12 in 10.0 mi West 8.1 mph - N/A   Clear
3:35 PM 66.2 °F - 39.2 °F 37% 30.12 in 10.0 mi WSW 9.2 mph 18.4 mph N/A   Clear
3:55 PM 66.2 °F - 39.2 °F 37% 30.11 in 10.0 mi SW 13.8 mph - N/A   Clear
4:15 PM 66.2 °F - 39.2 °F 37% 30.10 in 10.0 mi SW 12.7 mph 17.3 mph N/A   Clear
4:35 PM 66.2 °F - 39.2 °F 37% 30.10 in 10.0 mi West 9.2 mph - N/A   Clear
4:55 PM 66.2 °F - 39.2 °F 37% 30.10 in 10.0 mi West 9.2 mph - N/A   Clear
5:15 PM 66.2 °F - 39.2 °F 37% 30.10 in 10.0 mi West 10.4 mph - N/A   Clear
5:35 PM 66.2 °F - 39.2 °F 37% 30.10 in 10.0 mi West 5.8 mph - N/A   Clear
5:55 PM 66.2 °F - 39.2 °F 37% 30.10 in 10.0 mi West 6.9 mph - N/A   Clear
6:15 PM 66.2 °F - 41.0 °F 40% 30.09 in 10.0 mi West 6.9 mph - N/A   Clear
6:35 PM 66.2 °F - 42.8 °F 43% 30.08 in 10.0 mi West 4.6 mph - N/A   Clear
6:55 PM 62.6 °F - 44.6 °F 52% 30.08 in 10.0 mi Calm Calm - N/A   Clear
7:15 PM 59.0 °F - 46.4 °F 63% 30.08 in 10.0 mi SW 3.5 mph - N/A   Clear
7:35 PM 59.0 °F - 46.4 °F 63% 30.07 in 10.0 mi WSW 5.8 mph - N/A   Clear
7:55 PM 57.2 °F - 46.4 °F 67% 30.08 in 10.0 mi Calm Calm - N/A   Clear
8:15 PM 57.2 °F - 44.6 °F 63% 30.08 in 10.0 mi WSW 3.5 mph - N/A   Clear
8:35 PM 57.2 °F - 44.6 °F 63% 30.08 in 10.0 mi WSW 3.5 mph - N/A   Clear
8:55 PM 55.4 °F - 46.4 °F 72% 30.08 in 10.0 mi Calm Calm - N/A   Clear
9:15 PM 55.4 °F - 44.6 °F 67% 30.07 in 10.0 mi SSW 5.8 mph - N/A   Clear
9:35 PM 55.4 °F - 44.6 °F 67% 30.07 in 10.0 mi WSW 5.8 mph - N/A   Clear
9:55 PM 55.4 °F - 44.6 °F 67% 30.06 in 10.0 mi WSW 5.8 mph - N/A   Clear
10:15 PM 55.4 °F - 44.6 °F 67% 30.06 in 10.0 mi SW 5.8 mph - N/A   Clear
10:35 PM 55.4 °F - 44.6 °F 67% 30.06 in 10.0 mi Calm Calm - N/A   Clear
10:55 PM 55.4 °F - 44.6 °F 67% 30.06 in 10.0 mi West 3.5 mph - N/A   Clear
11:15 PM 55.4 °F - 44.6 °F 67% 30.05 in 10.0 mi SW 5.8 mph - N/A   Clear
11:35 PM 55.4 °F - 42.8 °F 63% 30.05 in 10.0 mi West 4.6 mph - N/A   Clear
11:55 PM 55.4 °F - 42.8 °F 63% 30.05 in 10.0 mi WSW 4.6 mph - N/A   Clear